Zhongxing 4A

operational
NORAD ID: 60606 Int'l Des: 2024-151 Owner: ZLZB Country: CN
HEOCIRCULARGSO

About Zhongxing 4A

Description loading...

Live Position

Loading 3D Globe...

Upcoming Passes

Altitude History

Altitude vs Time

uPlot chart will show altitude changes over time

Two-Line Element Set

1 60606U 24151A 26062.03941689 -.00000380 00000-0 00000+0 0 9998
2 60606 1.5884 271.9469 0001524 82.9898 298.2419 1.00270131 5690
Epoch: Mar 3, 2026 • Age: 31 hours

Current Status

Altitude 35781.4 km
Velocity 3.08 km/s
Sub-Earth Point 1.35°N, 118.21°E
Launch Date Aug 22, 2024
Age 1.5 years
Type other

Technical Details

Classification Payload
Mass 5000.00 kg
Dry Mass 2500.00 kg
Total Mass 5000.00 kg
Length 5.00 m
Diameter 2.50 m
Span 30.00 m
Shape Box + 2 Pan
Manufacturer SISE
Bus Type FY-4
Phase Status In Orbit
Owner/State ZLZB/CN

Large Constellations

Loading constellations...